Flag for Venezuela Weather past 2 weeks in Cumaná, Venezuela

Now
79 °F

Passing clouds.


Feels Like: 82 °F
Forecast: 79 / 89 °F
Wind: N/A

Location: Margarita / Del Carib

Current Time: Jul 1, 2015 at 1:12:20 AM

Latest Report: Jul 1, 2015 at 12:30 AM


Visibility: N/A

Pressure: 30.01 "Hg

Humidity: 84%

Dew point: 73 °F

Location of CumanáLocation

Historic Weather in Cumaná — Graph

°F

Cumaná temperature yesterday

Maximum temperature yesterday: 88 °F (at 3:30 PM)
Minimum temperature yesterday: 77 °F (at 12:30 AM)
Average temperature yesterday: 80 °F

Past Weeks' High & Low Weather Summary

 TemperatureHumidityPressure
High91 °F (Jun 21, 1:30 PM)100% (Jun 18, 8:30 AM)30.04 "Hg (Jun 18, 8:30 AM)
Low68 °F (Jun 28, 9:30 AM)49% (Jun 25, 1:30 PM)29.86 "Hg (Jun 18, 4:30 PM)
Average82 °F82%29.97 "Hg
* Reported Jun 15 11:30 PM — Jun 30 11:30 PM, Cumaná, Weather by CustomWeather, © 2015

Note: Actual official high and low records may vary slightly from our data, if they occured in-between our weather recording intervals... More about our weather records

Advertising

Cumaná weather history for previous 24 hours

 ConditionsComfort  
Time TempWeatherWind HumidityBarometerVisibility
11:30 PM
Tue, Jun 30
79 °FPassing clouds.N/A84%30.01 "HgN/A
10:30 PM77 °FPassing clouds.N/A89%30.01 "HgN/A
9:30 PM77 °FPassing clouds.N/A83%30.01 "HgN/A
8:30 PM79 °FPassing clouds.N/A89%29.98 "HgN/A
7:30 PM79 °FPassing clouds.N/A89%29.98 "HgN/A
6:30 PM81 °FPassing clouds.N/A84%30.04 "HgN/A
5:30 PM82 °FWarm.N/A84%29.98 "HgN/A
4:30 PM84 °FWarm.N/A79%29.98 "HgN/A
3:30 PM88 °FPartly sunny.N/A66%29.95 "HgN/A
2:30 PM86 °FPartly sunny.N/A70%29.95 "HgN/A
1:30 PM84 °FPartly sunny.N/A79%29.98 "HgN/A
12:30 PM82 °FDrizzle. Partly sunny.N/A84%30.01 "HgN/A
11:30 AM86 °FPartly sunny.N/A70%30.01 "HgN/A
10:30 AM82 °FPartly sunny.N/A84%30.01 "HgN/A
9:30 AM81 °FPartly sunny.N/A89%30.01 "HgN/A
8:30 AM81 °FPartly sunny.N/A89%29.98 "HgN/A
7:30 AM79 °FScattered clouds.N/A84%30.01 "HgN/A
6:30 AM77 °FScattered clouds.N/A89%29.98 "Hg4 mi
5:30 AM77 °FScattered clouds.N/A89%29.98 "HgN/A
4:30 AM77 °FPassing clouds.N/A89%29.98 "HgN/A
3:30 AM77 °FPassing clouds.N/A89%29.98 "HgN/A
2:30 AM77 °FPassing clouds.N/A89%29.98 "HgN/A
1:30 AM77 °FPassing clouds.N/A89%29.98 "HgN/A
Weather by CustomWeather, © 2015

See weather overviewHow to use our weather pages